www.pogodaiklimat.ru

Погода и климат >> Архив погоды >> Япония >> Хакодате


ПОГОДА в Хакодате

  • Прогноз погоды в Хакодате
  • Монитор погоды в Хакодате

АРХИВ ПОГОДЫ в Хакодате

Время (UTC), дата Ветер
(напр.,м/с)
 
Видим.   Явления Облачность Т
(С)
Тd
(С)
f
(%)
Тe
(С)
Тes
(С)
Комфортность P
(гПа)
Po
(гПа)
Тmin
(С)
Tmax
(С)
R
(мм)
R24
(мм)
S
(см)
07 11.07 В 7 н/о н/о +21.2 +13.4 61 +24 +24 комфорт 1012.3 1007.2
08 11.07 В 7 н/о н/о +20.6 +12.8 61 +23 +23 комфорт 1012.0 1006.9
09 11.07 В 5 20 км 9/1
[Cu med, cong Ac trans Ci sp]
+18.4 +12.4 68 +18 +19 1012.4 1007.2
10 11.07 В 5 н/о н/о +17.6 +13.7 78 +17 +17 1012.3 1007.1
11 11.07 В 6 н/о н/о +17.4 +14.3 82 +17 +17 1011.9 1006.7
12 11.07 В 7 20 км 9/3
[Cu med, cong Ac trans Ci sp]
+17.8 +14.1 79 +17 +17 1011.5 1006.3 +23.0
13 11.07 В 5 н/о н/о +17.6 +13.9 79 +17 +17 1011.3 1006.1
14 11.07 В 6 н/о н/о +17.7 +14.2 80 +17 +17 1010.6 1005.4
15 11.07 В 5 н/о н/о +17.6 +14.5 82 +17 +17 1010.4 1005.2
16 11.07 В 6 н/о н/о +17.4 +14.5 83 +17 +17 1009.2 1004.0
17 11.07 В 4 н/о н/о +17.6 +14.5 82 +17 +17 1009.5 1004.3
18 11.07 В 6 20 км 10/10
[Cu med, cong]
+17.0 +15.0 88 +16 +16 1008.4 1003.2
19 11.07 В 5 н/о н/о +17.1 +15.1 88 +16 +16 1008.3 1003.1
20 11.07 В 5 н/о н/о +16.8 +15.5 92 +16 +16 1008.1 1002.9
21 11.07 В 4 10 км слаб. ливневой дождь 10/10
[Cu med, cong]
+16.8 +15.3 91 +16 +16 1007.8 1002.6
22 11.07 В 5 н/о н/о +17.2 +15.2 88 +17 +17 1007.4 1002.2
23 11.07 В 5 н/о н/о +18.0 +15.3 84 +18 +18 1007.3 1002.2
00 12.07 В 5 15 км в посл. час ливневой дождь 10/10
[Cu med, cong]
+19.4 +15.9 80 +21 +21 комфорт 1006.7 1001.6 +16.7 0.5
01 12.07 В 6 н/о н/о +19.7 +16.2 80 +22 +22 комфорт 1006.4 1001.3
02 12.07 В 7 н/о н/о +18.5 +15.8 84 +18 +18 1006.2 1001.1
03 12.07 В 9 6000 м слаб. ливневой дождь, в посл. час гроза 10/10
[Cb calv]
+18.4 +16.9 91 +18 +18 1005.1 1000.0
04 12.07 В 7 н/о н/о +19.5 +16.4 82 +21 +21 комфорт 1004.6 999.5
06 12.07 В 7 3000 м слаб. ливневой дождь {гроза} 10/10
[Cu med, cong]
+17.8 +17.0 95 +17 +17 1003.8 998.7 2
07 12.07 В 6 н/о н/о +17.7 +16.9 95 +17 +17 1003.5 998.4
08 12.07 В 5 н/о н/о +17.7 +17.1 96 +17 +17 1003.6 998.5
09 12.07 В 5 8000 м слаб. ливневой дождь 10/10
[Cu med, cong]
+17.6 +16.8 95 +17 +17 1003.3 998.2
10 12.07 В 5 н/о н/о +17.7 +17.1 96 +17 +17 1003.0 997.9
11 12.07 В 5 н/о н/о +17.5 +16.5 94 +17 +17 1003.1 998.0
12 12.07 В 6 8000 м в посл. час ливневой дождь 9/9
[Frnb]
+17.5 +16.5 94 +17 +17 1002.8 997.7 +20.5 7
13 12.07 В 5 н/о н/о +17.5 +16.9 96 +17 +17 1002.7 997.6
14 12.07 В 4 н/о н/о +17.8 +17.0 95 +18 +18 1002.4 997.3
15 12.07 В 5 н/о н/о +17.9 +16.9 94 +18 +18 1002.0 996.9
16 12.07 ЮВ 3 н/о н/о +17.8 +17.3 97 +18 +18 1002.1 997.0
17 12.07 ЮВ 3 н/о н/о +18.0 +17.7 98 +18 +18 1001.9 996.8
18 12.07 ЮВ 4 6000 м слаб. ливневой дождь 9/9
[Frnb]
+18.8 +18.6 99 +20 +20 1002.0 996.9 3
19 12.07 Ю 4 н/о н/о +19.1 +17.3 89 +21 +21 комфорт 1002.4 997.3
20 12.07 ЮЗ 3 н/о н/о +19.2 +17.2 88 +21 +21 комфорт 1002.7 997.6
21 12.07 ЮЗ 4 10 км {ливн. осадки} 9/9
[St]
+19.2 +16.4 84 +21 +21 комфорт 1003.0 997.9
22 12.07 ЮЗ 4 н/о н/о +19.7 +16.7 83 +22 +22 комфорт 1003.6 998.5
23 12.07 Ю 5 н/о н/о +20.4 +16.2 77 +23 +23 комфорт 1003.7 998.6
00 13.07 ЮЗ 5 15 км {ливн. осадки} 9/9
[Cu med, cong]
+20.7 +16.5 77 +24 +25 комфорт 1003.8 998.7 +17.4 3
01 13.07 ЮЗ 5 н/о н/о +21.6 +17.4 77 +26 +26 душно 1004.0 998.9
02 13.07 ЮЗ 6 н/о н/о +22.4 +17.1 72 +27 +27 душно 1003.9 998.9
03 13.07 ЮЗ 5 20 км 9/9
[Cu med, cong Ac As]
+22.0 +17.2 74 +26 +27 душно 1003.9 998.9
04 13.07 ЮЗ 5 н/о н/о +21.3 +16.5 74 +25 +25 комфорт 1003.9 998.8
05 13.07 ЮЗ 3 н/о н/о +21.1 +16.7 76 +25 +25 комфорт 1004.1 999.0
06 13.07 ЮЗ 4 15 км слаб. ливневой дождь 9/9
[Cu med, cong Ac As]
+21.1 +17.1 78 +25 +26 комфорт 1004.1 999.0 0.0
07 13.07 ЮЗ 4 н/о н/о +20.6 +17.2 81 +24 +24 комфорт 1004.1 999.0
08 13.07 ЮВ 4 н/о н/о +20.5 +17.9 85 +24 +24 комфорт 1004.1 999.0
09 13.07 ЮВ 4 20 км в посл. час ливневой дождь 10/10
[Cu med, cong]
+20.6 +17.8 84 +24 +24 комфорт 1004.4 999.3
10 13.07 ЮВ 4 н/о н/о +19.5 +18.2 92 +22 +22 комфорт 1004.5 999.4
11 13.07 ЮВ 3 н/о н/о +19.0 +18.2 95 +21 +21 комфорт 1005.2 1000.1
12 13.07 ЮВ 3 10 км в посл. час ливневой дождь 10/10
[Cu med, cong]
+18.8 +17.8 94 +20 +20 1005.5 1000.4 +23.1 3
13 13.07 В 3 н/о н/о +18.8 +17.5 92 +20 +20 1005.6 1000.5
14 13.07 СВ 2 н/о н/о +18.7 +17.7 94 +20 +20 1005.4 1000.3
15 13.07 В 2 н/о н/о +18.9 +17.2 90 +21 +21 комфорт 1005.3 1000.2
16 13.07 З 2 н/о н/о +18.9 +17.8 93 +21 +21 комфорт 1005.0 999.9
17 13.07 З 2 н/о н/о +18.4 +17.8 96 +20 +20 1005.0 999.9
18 13.07 С 1 15 км {ливн. осадки} 4/1
[St Ac trans]
+17.4 +17.1 98 +18 +18 1005.0 999.9 0.0
19 13.07 С 1 н/о н/о +16.7 +16.4 98 +18 +18 1005.0 999.8
20 13.07 В 2 н/о н/о +16.7 +16.4 98 +17 +17 1005.3 1000.1
21 13.07 В 3 10 км 9/9
[St Ac trans]
+18.2 +17.2 94 +19 +19 1005.3 1000.2
22 13.07 В 4 н/о н/о +19.4 +17.7 90 +22 +22 комфорт 1005.3 1000.2
23 13.07 ЮВ 5 н/о н/о +20.6 +18.0 85 +24 +24 комфорт 1005.0 999.9
00 14.07 ЮВ 5 15 км 9/6
[St Ac trans]
+21.8 +18.2 80 +27 +28 душно 1005.2 1000.1 +16.4 0.0
01 14.07 В 5 н/о н/о +23.3 +17.8 71 +29 +29 душно 1005.1 1000.1
02 14.07 ЮВ 7 н/о н/о +24.1 +18.3 70 +29 +29 душно 1004.9 999.9
03 14.07 ЮВ 7 15 км 8/6
[St Ci sp]
+24.5 +18.0 67 +29 +31 душно 1004.8 999.8
04 14.07 В 7 н/о н/о +23.4 +18.1 72 +29 +29 душно 1005.0 1000.0
05 14.07 В 6 н/о н/о +22.4 +17.8 75 +27 +27 душно 1005.2 1000.2
06 14.07 В 7 10 км 9/9
[St]
+21.8 +17.4 76 +26 +26 душно 1005.3 1000.2
07 14.07 В 6 н/о н/о +20.6 +16.8 79 +24 +24 комфорт 1005.7 1000.6
08 14.07 В 6 н/о н/о +20.2 +16.8 81 +23 +23 комфорт 1005.8 1000.7
09 14.07 В 6 8000 м дымка 9/9
[St]
+19.6 +16.6 83 +21 +21 комфорт 1006.4 1001.3
10 14.07 В 5 н/о н/о +19.0 +16.6 86 +20 +20 1006.9 1001.8
11 14.07 В 5 н/о н/о +18.8 +16.8 88 +20 +20 1007.4 1002.3
12 14.07 В 5 5000 м в посл. час морось 9/9
[St]
+18.7 +16.7 88 +19 +19 1007.8 1002.7 +24.9 0.0
13 14.07 В 5 н/о н/о +18.3 +16.3 88 +18 +18 1008.1 1003.0
14 14.07 В 7 н/о н/о +18.1 +16.3 89 +18 +18 1008.3 1003.2
15 14.07 В 7 н/о н/о +18.1 +16.1 88 +18 +18 1008.4 1003.3
16 14.07 В 6 н/о н/о +18.0 +16.3 90 +17 +17 1008.4 1003.3
17 14.07 В 6 н/о н/о +18.1 +15.9 87 +18 +18 1008.8 1003.7
18 14.07 В 5 5000 м в посл. час морось 9/9
[St]
+17.9 +16.1 89 +17 +17 1009.3 1004.1 0.0
19 14.07 В 5 н/о н/о +17.6 +16.3 92 +17 +17 1009.7 1004.5
20 14.07 В 5 н/о н/о +17.4 +16.3 93 +17 +17 1010.0 1004.8
21 14.07 В 5 7000 м дымка 9/9
[St]
+18.0 +15.5 85 +18 +18 1010.4 1005.2
22 14.07 В 5 н/о н/о +19.4 +15.7 79 +21 +21 комфорт 1010.6 1005.5
23 14.07 В 6 н/о н/о +19.8 +15.7 77 +22 +22 комфорт 1011.0 1005.9
00 15.07 В 5 8000 м дымка 9/9
[St]
+20.3 +15.5 74 +23 +24 комфорт 1011.3 1006.2 +17.4 0.0
01 15.07 В 7 н/о н/о +20.3 +15.1 72 +23 +23 комфорт 1011.8 1006.7
02 15.07 ЮВ 6 н/о н/о +21.6 +14.5 64 +25 +25 комфорт 1012.1 1007.0
03 15.07 В 8 15 км 9/6
[Cu med, cong Ac trans]
+21.8 +13.2 58 +24 +25 комфорт 1012.0 1006.9
04 15.07 ЮВ 8 н/о н/о +23.0 +13.5 55 +26 +26 жарко 1012.2 1007.1
05 15.07 В 7 н/о н/о +22.5 +13.0 55 +25 +25 комфорт 1012.3 1007.2
06 15.07 ЮВ 7 20 км 9/9
[Cu Sc]
+21.8 +13.7 60 +25 +25 комфорт 1012.6 1007.5
07 15.07 ЮВ 7 н/о н/о +21.7 +13.6 60 +24 +24 комфорт 1012.6 1007.5
08 15.07 ЮВ 7 н/о н/о +20.1 +14.7 71 +22 +22 комфорт 1012.7 1007.6
09 15.07 ЮВ 7 10 км 8/3
[Cu med, cong Ac trans Ci sp]
+19.0 +13.9 72 +20 +20 1013.3 1008.1
10 15.07 ЮВ 6 н/о н/о +18.1 +14.4 79 +18 +18 1014.2 1009.0
11 15.07 ЮВ 5 н/о н/о +17.6 +14.1 80 +17 +17 1014.6 1009.4
12 15.07 ЮВ 5 10 км 8/8
[Cu med, cong]
+17.6 +14.1 80 +17 +17 1015.1 1009.9 +23.5
13 15.07 ЮВ 6 н/о н/о +17.5 +14.0 80 +17 +17 1015.2 1010.0
14 15.07 ЮВ 4 н/о н/о +17.3 +14.0 81 +17 +17 1015.3 1010.1
15 15.07 В 4 н/о н/о +17.2 +13.9 81 +17 +17 1015.3 1010.1
16 15.07 В 5 н/о н/о +16.8 +14.1 84 +16 +16 1014.9 1009.7
17 15.07 В 5 н/о н/о +16.5 +13.8 84 +16 +16 1014.7 1009.5
18 15.07 В 4 10 км слаб. морось 10/10
[St]
+16.1 +14.6 91 +15 +15 1015.1 1009.9 0.0
19 15.07 В 4 н/о н/о +16.0 +15.0 94 +15 +15 1015.2 1010.0
20 15.07 В 3 н/о н/о +16.0 +15.5 97 +15 +15 1015.5 1010.3
21 15.07 ЮВ 3 3000 м слаб. морось 10/10
[St]
+16.5 +16.0 97 +16 +16 1015.8 1010.6
22 15.07 ЮВ 5 н/о н/о +17.1 +15.3 89 +16 +16 1016.1 1010.9
23 15.07 В 4 н/о н/о +17.7 +15.3 86 +17 +17 1016.4 1011.2
00 16.07 В 6 10 км {морось} 10/10
[St]
+18.6 +15.1 80 +19 +19 1016.3 1011.1 +15.9 0.0
01 16.07 ЮВ 6 н/о н/о +19.5 +16.0 80 +21 +21 комфорт 1016.3 1011.1
02 16.07 В 6 н/о н/о +18.8 +16.2 85 +19 +19 1016.1 1010.9
03 16.07 В 4 5000 м слаб. морось 10/10
[St]
+18.9 +16.3 85 +20 +20 1015.9 1010.7
04 16.07 В 6 н/о н/о +19.2 +16.1 82 +20 +20 1015.5 1010.3
05 16.07 В 5 н/о н/о +18.8 +16.6 87 +20 +20 1015.3 1010.1
06 16.07 В 5 5000 м в посл. час морось 10/10
[St]
+19.5 +16.7 84 +21 +21 комфорт 1015.1 1009.9 0.0
07 16.07 В 5 н/о н/о +19.5 +16.6 83 +21 +21 комфорт 1015.2 1010.0
08 16.07 В 5 н/о н/о +19.2 +16.6 85 +21 +21 комфорт 1015.1 1009.9
09 16.07 В 4 5000 м дымка 9/9
[St]
+18.9 +16.5 86 +20 +20 1015.0 1009.8
10 16.07 В 4 н/о н/о +18.6 +16.9 90 +20 +20 1015.2 1010.0
11 16.07 В 4 н/о н/о +18.4 +16.9 91 +19 +19 1015.6 1010.4
12 16.07 ЮВ 4 5000 м дымка 9/9
[St]
+18.2 +16.7 91 +18 +18 1015.7 1010.5 +20.0 0.0
13 16.07 ЮВ 4 н/о н/о +18.2 +16.7 91 +18 +18 1015.6 1010.4
14 16.07 В 2 н/о н/о +18.0 +16.5 91 +19 +19 1015.4 1010.2
15 16.07 В 1 н/о н/о +17.9 +16.6 92 +19 +19 1015.0 1009.8
16 16.07 В 1 н/о н/о +17.5 +16.5 94 +19 +19 1014.7 1009.5
17 16.07 С 1 н/о н/о +17.4 +16.4 94 +18 +18 1014.7 1009.5
18 16.07 С 2 8000 м дымка 9/9
[St]
+16.9 +16.1 95 +17 +17 1014.2 1009.0
19 16.07 В 1 н/о н/о +16.7 +15.9 95 +18 +18 1014.6 1009.4
20 16.07 С 1 н/о н/о +17.6 +16.5 93 +19 +19 1014.6 1009.4
21 16.07 З 2 10 км 10/10
[St]
+18.3 +16.8 91 +20 +20 1014.8 1009.6
22 16.07 ЮЗ 1 н/о н/о +19.0 +17.3 90 +22 +22 комфорт 1015.0 1009.8
23 16.07 Ю 1 н/о н/о +19.1 +17.4 90 +22 +22 комфорт 1014.9 1009.7
00 17.07 Ю 1 15 км 9/9
[Cu med, cong Ac trans]
+21.1 +17.9 82 +25 +27 комфорт 1014.4 1009.3 +16.5
01 17.07 З 2 н/о н/о +21.7 +17.9 79 +26 +26 душно 1014.3 1009.2
02 17.07 Ю 3 н/о н/о +23.2 +18.5 75 +29 +29 душно 1014.2 1009.1
03 17.07 Ю 3 10 км 9/4
[Cu med, cong Ac trans]
+22.3 +18.5 79 +28 +33 душно 1014.1 1009.0
04 17.07 Ю 2 н/о н/о +22.9 +18.5 76 +29 +29 очень
душно
1014.1 1009.0
05 17.07 Ю 2 н/о н/о +22.9 +18.2 75 +29 +29 очень
душно
1013.9 1008.8
06 17.07 Ю 2 15 км 9/3
[Cu med, cong Ac trans]
+23.0 +18.8 77 +29 +33 очень
душно
1013.7 1008.6
07 17.07 З 3 н/о н/о +22.7 +18.7 78 +28 +28 душно 1013.6 1008.5
08 17.07 С 2 н/о н/о +23.1 +19.1 78 +29 +29 очень
душно
1013.4 1008.3
09 17.07 С 3 15 км 9/5
[Cu med, cong Ac trans Ci sp]
+22.8 +19.0 79 +29 +29 очень
душно
1013.5 1008.4
11 17.07 СЗ 1 н/о н/о +20.7 +19.0 90 +26 +26 душно 1014.0 1008.9
12 17.07 СЗ 2 10 км 9/9
[St]
+20.4 +19.1 92 +25 +25 комфорт 1014.1 1009.0 +24.4
13 17.07 СЗ 2 н/о н/о +20.2 +18.9 92 +25 +25 комфорт 1014.1 1009.0
14 17.07 ЮЗ 1 н/о н/о +19.8 +18.8 94 +24 +24 комфорт 1014.3 1009.2
15 17.07 ЮВ 3 н/о н/о +19.6 +17.9 90 +22 +22 комфорт 1013.8 1008.7
16 17.07 ЮВ 1 н/о н/о +19.5 +18.3 93 +23 +23 комфорт 1013.4 1008.3
17 17.07 ЮЗ 2 н/о н/о +19.4 +18.2 93 +22 +22 комфорт 1013.7 1008.6
18 17.07 ЮЗ 2 6000 м дымка 10/10
[St]
+19.3 +18.3 94 +22 +22 комфорт 1013.8 1008.7
19 17.07 ЮВ 1 н/о н/о +19.2 +18.2 94 +22 +22 комфорт 1013.6 1008.5
20 17.07 ЮВ 2 н/о н/о +18.9 +18.3 96 +21 +21 комфорт 1013.9 1008.7
21 17.07 ЮВ 1 4000 м дымка 10/10
[St]
+18.9 +18.4 97 +22 +22 комфорт 1013.8 1008.6
22 17.07 ЮВ 1 н/о н/о +19.6 +18.4 93 +24 +24 комфорт 1013.9 1008.8
23 17.07 Ю 1 н/о н/о +20.7 +18.3 86 +26 +26 душно 1013.9 1008.8
00 18.07 ЮЗ 2 10 км 9/5
[Cu med, cong Ac trans Ci sp]
+22.7 +19.1 80 +29 +33 очень
душно
1013.9 1008.8 +18.8
01 18.07 Ю 2 н/о н/о +23.9 +19.4 76 +29 +29 душно 1013.9 1008.8
02 18.07 Ю 3 н/о н/о +23.6 +19.1 76 +28 +28 душно 1013.8 1008.7
03 18.07 Ю 3 6000 м туман на расстоянии 9/1
[Cu med, cong Ac trans Ci sp]
+24.3 +19.2 73 +29 +37 душно 1013.2 1008.2
04 18.07 Ю 3 н/о н/о +24.3 +19.6 75 +30 +30 очень
душно
1013.0 1008.0
06 18.07 Ю 3 10 км 9/9
[Cu med, cong Ac trans]
+25.3 +18.5 66 +30 +31 душно 1012.0 1007.0

 

Местоположение метеостанции Хакодате (Япония): широта 41.82 долгота 140.75 высота над уровнем моря 43 м.

В архиве по умолчанию представлена погода в Хакодате за последнюю неделю. Архивные данные за месяц целиком и за предыдущие месяцы, начиная с января 2011 года, Вы можете получить, выбрав интересующий диапазон дат из раскрывающегося списка и нажав кнопку "Ввод!".


*Определитесь, кто Вы:
робот инопланетянин человек

Внимание! Время в таблицах - всемирное. Для получения местного времени необходимо прибавить поправку, которая равна 9 ч.

Смотрите также архив погоды в соседних городах и на ближайших метеорологических станциях:

Погода в Эсаси (Япония) (53 км)
Погода в Муроране (Япония) (59 км)
Погода в Муцу (Япония) (71 км)
Погода в Томакомае (Япония) (111 км)
Погода в Аомори (Япония) (111 км)
Погода в Суццу (Япония) (118 км)
Погода в Куттяне (Япония) (120 км)
Погода в Саппоро (Япония) (147 км)
Погода в Фукауре (Япония) (147 км)
Погода в Отару (Япония) (153 км)

Пояснения к столбцам:

Ветер - указаны скорость ветра в м/с - средняя за 10 мин, порывы в срок и между сроками (в фигурных скобках) и направление, откуда дует ветер: С - северный, СВ - северо-восточный, В - восточный, ЮВ - юго-восточный, Ю - южный, ЮЗ - юго-западный, З - западный, СЗ - северо-западный.
Видимость - горизонтальная дальность видимости в метрах или километрах. При видимости от 1 до 10 км при отсутствии осадков обычно наблюдается дымка, при ухудшении видимости до 1 км и менее - туман. В сухую погоду видимость может ухудшаться дымом, пылью или мглою.
Явления - указаны атмосферные явления, наблюдавшиеся в срок или в последний час перед сроком; фигурными скобками обозначены явления, наблюдавшиеся между сроками (за 1-3 часа до срока); квадратными скобками обозначены град или гололедные отложения с указанием их диаметра в мм.
Облачность - указаны через наклонную черту общая и нижняя облачность в баллах и высота нижней границы облаков в метрах; квадратными скобками обозначены формы облаков: Ci - перистые, Cs - перисто-слоистые, Cc - перисто-кучевые, Ac - высококучевые, As - высокослоистые, Sc - слоисто-кучевые, Ns - слоисто-дождевые, Cu - кучевые, Cb - кучево-дождевые. Подробнее классификацию облаков см. в Атласе облаков (PDF).
T - Температура воздуха - температура, измеренная на высоте 2 м над землей.
Td - Температура точки росы - температура, при понижении до которой содержащийся в воздухе водяной пар достигнет насыщения.
f - Относительная влажность воздуха - влажноcть воздуха, измеренная на высоте 2 м над землей.
Te - Эффективная температура - температура, которую ощущает одетый по сезону человек в тени. Характеристика душности погоды. При расчете учитывается влияние влажности воздуха и скорости ветра на теплоощущения человека.
Tes - Эффективная температура на солнце - температура, которую ощущает человек, с поправкой на солнечный нагрев. Характеристика знойности погоды. Зависит от высоты солнца над горизонтом, облачности и скорости ветра. Ночью, в пасмурную погоду, а также при ветре 12 м/с и более поправка равна нулю.
P - Атмосферное давление - приведенное к уровню моря атмосферное давление.
Po - Атмосферное давление - измеренное на уровне метеостанции атмосферное давление.
Tmin - Минимальная температура - минимум температуры воздуха на высоте 2 м над землей.
Tmax - Максимальная температура - максимум температуры воздуха на высоте 2 м над землей.
R - Количество осадков - Количество выпавших осадков за период времени, мм. При наведении курсора мыши на число - период времени, за который выпало указанное количество осадков.
R24 - Количество осадков - Количество выпавших осадков за 24 часа, мм.
S - Снежный покров - Высота снежного покрова, см. При наведении курсора мыши на число - состояние снежного покрова и степень покрытия местности в баллах.